Meteo Giornale » Osservazioni meteo Italia » Treviso-S Angelo

ore: 11:50 - Osservazioni Meteo Treviso-S Angelo
Lat. 45° 39' N Lon. 12° 11' E Alt. 18 metri s.l.m.

sereno Europe/Rome

7 °C

Sereno

Temp. 24 Ore

-3 °C

9 °C

Est/Nord-Est

9.3 Km/h

Dew point -1 °C

Umidità 56 %

Visibilità  10 Km

Il sole sorge alle ore 07:45

Il sole tramonta alle ore 16:30

Data e Ora Cielo e Fenomeni T °C DP °C Um. % Pres. hPa Vis. km Vento km/h
Oggi h: 11:50 sereno Sereno 7 -1 56 1029 10 E/NE 9.3
Oggi h: 11:20 sereno Sereno 6 -1 60 1029 10 E/NE 9.3
Oggi h: 10:50 sereno Sereno 5 -1 65 1030 10 N/NE 7.4
Oggi h: 10:20 sereno Sereno 4 -1 69 1030 10 N/NE 7.4
Oggi h: 09:50 sereno Sereno 3 -2 69 1030 10 N 5.5
Oggi h: 09:20 sereno Sereno 1 -2 80 1029 10 N 5.5
Oggi h: 08:50 sereno Sereno -0 -2 86 1029 10 N 5.5
Oggi h: 08:20 sereno Sereno -1 -3 86 1029 10 N 1.8
Oggi h: 07:50 sereno Sereno -2 -3 92 1029 10 N 3.7
Oggi h: 07:20 sereno Sereno -2 -3 92 1029 10 N 3.7
Oggi h: 06:50 sereno Sereno -3 -4 92 1028 10 N 3.7
Oggi h: 06:20 sereno Sereno -2 -3 92 1028 10 N 3.7
Oggi h: 05:50 sereno Sereno -2 -3 92 1028 9 N 3.7
Oggi h: 04:50 sereno Sereno -2 -2 100 1028 7 N 3.7
Oggi h: 04:20 sereno Sereno -1 -2 92 1028 8 N 3.7
Oggi h: 03:50 foschia Foschia -1 -2 92 1028 4 N 3.7
Oggi h: 03:20 foschia Foschia -1 -2 92 1027 3 N 3.7
Oggi h: 02:50 sereno Sereno -1 -2 92 1027 6 N 1.8
Oggi h: 02:20 foschia Foschia -1 -1 100 1027 5 N 3.7
Oggi h: 01:50 foschia Foschia -0 -1 92 1027 5 N 3.7
Oggi h: 01:20 molto_nuvoloso Molto Nuvoloso -0 -1 92 1027 6 N 3.7
Oggi h: 00:50 molto_nuvoloso Molto Nuvoloso -0 -2 86 1027 7 N 1.8
Oggi h: 00:20 molto_nuvoloso Molto Nuvoloso 1 -2 80 1027 9 N 1.8
Ieri h: 23:50 molto_nuvoloso Molto Nuvoloso 1 -2 80 1027 8 N 3.7
Ieri h: 23:20 sereno Sereno 0 -2 86 1027 10 N 5.5
Ieri h: 22:50 sereno Sereno 1 -2 80 1027 10 N 5.5
Ieri h: 22:20 sereno Sereno 1 -2 80 1026 10 N 1.8
Ieri h: 21:50 sereno Sereno 1 -1 86 1026 10 N 1.8
Ieri h: 21:20 sereno Sereno 1 -2 80 1026 10 N 3.7
Ieri h: 20:50 sereno Sereno 1 -2 80 1026 10 N 3.7
Ieri h: 20:20 sereno Sereno 1 -1 86 1025 10 N 3.7
Ieri h: 19:50 sereno Sereno 2 -2 74 1025 10 N 1.8
Ieri h: 19:20 sereno Sereno 2 -2 74 1025 10 N 3.7
Ieri h: 18:50 sereno Sereno 2 -1 80 1024 10 N 3.7
Ieri h: 18:20 sereno Sereno 3 -2 69 1024 10 N 1.8
Ieri h: 17:50 sereno Sereno 4 -2 64 1023 10 N 1.8
Ieri h: 17:20 sereno Sereno 4 -2 64 1023 10 N 1.8
Ieri h: 16:50 sereno Sereno 6 -2 56 1022 10 N 0
Ieri h: 16:20 sereno Sereno 7 -2 52 1022 10 N 1.8
Ieri h: 15:50 sereno Sereno 8 -2 49 1021 10 E 11.1
Ieri h: 15:20 sereno Sereno 9 -2 45 1021 10 N 5.5
Ieri h: 14:50 sereno Sereno 9 -1 49 1020 10 N 5.5
Ieri h: 14:20 sereno Sereno 9 -1 49 1020 10 N 7.4
Ieri h: 13:50 sereno Sereno 8 -1 52 1020 10 N 7.4
Ieri h: 13:20 sereno Sereno 8 -1 52 1020 10 N 5.5
Ieri h: 12:50 sereno Sereno 8 -2 49 1020 10 N/NE 7.4
Ieri h: 12:20 sereno Sereno 7 -2 52 1020 10 N/NE 9.3
Ieri h: 11:50 sereno Sereno 6 -2 56 1020 10 N 9.3